DW2213 Sueca ES current weather conditions

sailwx.info

Wind from 259 at 2 knots gusting 8

Air temperature 22.2° C
Dewpoint 4.3° C

Last reported at 2020-Feb-26 15:58 UTC.
Time now 2020-Feb-26 16:39 UTC

Location: N 39°13' W 000°19'.
View on Google Maps.

See reports from other nearby stations

  
Tides and Currents Weather Stations Pressure Air Temp Water Temp Dewpoint Dewpoint Depression Visibility Wind Speed Wind Dir Waves Ship Positions
date/time (UTC)wind fromknots sea level pressurealtimeterstation pressurevisibilityair tempwater tempwave heightnotes
2020-Feb-26 15:58 259 2 gusting 8 22.2
2020-Feb-26 15:53 276 5 gusting 10 22.2
2020-Feb-26 15:48 274 4 gusting 10 22.2
2020-Feb-26 15:43 256 5 gusting 11 22.2
2020-Feb-26 15:38 258 3 gusting 8 22.2
2020-Feb-26 15:28 263 6 gusting 11 22.2
2020-Feb-26 15:18 250 5 gusting 11 22.2
2020-Feb-26 15:13 279 4 gusting 12 22.2
2020-Feb-26 15:08 275 4 gusting 11 22.2
2020-Feb-26 14:58 267 5 gusting 10 22.2
2020-Feb-26 14:53 241 4 gusting 8 22.2
2020-Feb-26 14:48 256 4 gusting 8 22.2
2020-Feb-26 14:43 246 3 gusting 6 22.2
2020-Feb-26 14:38 240 6 gusting 11 22.2
2020-Feb-26 14:33 258 5 gusting 8 22.2
2020-Feb-26 14:23 266 4 gusting 10 22.2
2020-Feb-26 14:18 273 5 gusting 11 22.2
2020-Feb-26 14:13 270 4 gusting 6 22.2
2020-Feb-26 14:08 260 4 gusting 10 21.7
2020-Feb-26 14:03 279 4 gusting 11 21.7
2020-Feb-26 13:58 288 0 gusting 8 21.7
2020-Feb-26 13:53 286 4 gusting 10 21.7
2020-Feb-26 13:48 317 1 gusting 5 21.7
2020-Feb-26 13:43 314 1 gusting 4 21.7
2020-Feb-26 13:38 276 4 gusting 7 21.7
2020-Feb-26 13:28 257 1 gusting 6 21.7
2020-Feb-26 13:23 308 2 gusting 6 21.7
2020-Feb-26 13:18 284 2 gusting 7 21.7
2020-Feb-26 13:08 272 4 gusting 10 21.7
2020-Feb-26 13:03 010 3 gusting 6 21.1
2020-Feb-26 12:58 334 2 gusting 6 21.1
2020-Feb-26 12:38 331 2 gusting 6 21.1
2020-Feb-26 12:28 323 5 gusting 7 20.6
2020-Feb-26 12:23 275 4 gusting 10 20.6
2020-Feb-26 12:18 311 2 gusting 8 20.6
2020-Feb-26 12:13 283 0 gusting 7 20.6
2020-Feb-26 12:03 322 4 gusting 8 20.0
2020-Feb-26 11:58 266 5 gusting 8 20.0
2020-Feb-26 11:53 280 6 gusting 10 20.0
2020-Feb-26 11:48 300 2 gusting 12 20.0
2020-Feb-26 11:43 295 4 gusting 10 19.4
2020-Feb-26 11:38 331 5 gusting 8 20.0
2020-Feb-26 11:33 277 4 gusting 11 19.4
2020-Feb-26 11:28 284 5 gusting 10 19.4
2020-Feb-26 11:23 289 6 gusting 13 19.4
2020-Feb-26 11:18 285 4 gusting 13 19.4
2020-Feb-26 11:13 271 4 gusting 7 19.4
2020-Feb-26 11:08 273 3 gusting 10 18.9
2020-Feb-26 11:03 299 4 gusting 8 18.9
2020-Feb-26 10:58 289 4 gusting 10 18.9
2020-Feb-26 10:53 250 4 gusting 12 18.3
2020-Feb-26 10:48 257 5 gusting 13 18.3
2020-Feb-26 10:43 278 5 gusting 13 18.3
2020-Feb-26 10:38 279 6 gusting 13 18.3
2020-Feb-26 10:23 290 6 gusting 13 17.8
2020-Feb-26 10:18 300 6 gusting 12 17.8
2020-Feb-26 10:13 282 6 gusting 10 17.8
2020-Feb-26 10:08 282 4 gusting 13 17.2
2020-Feb-26 09:58 280 7 gusting 15 17.2
2020-Feb-26 09:48 262 7 gusting 13 17.2
2020-Feb-26 09:38 273 6 gusting 13 16.7
2020-Feb-26 09:28 273 4 gusting 10 16.1
2020-Feb-26 09:23 245 6 gusting 11 16.1
2020-Feb-26 09:18 284 2 gusting 6 16.1
2020-Feb-26 09:13 263 5 gusting 10 16.1
2020-Feb-26 09:03 266 4 gusting 10 15.6
2020-Feb-26 08:48 257 2 gusting 10 15.6
2020-Feb-26 08:43 254 4 gusting 8 15.0
2020-Feb-26 08:38 262 4 gusting 10 15.0
2020-Feb-26 08:23 274 3 gusting 10 15.0
2020-Feb-26 08:18 267 5 gusting 13 14.4
2020-Feb-26 08:13 259 4 gusting 10 14.4
2020-Feb-26 08:08 262 2 gusting 8 14.4
2020-Feb-26 07:58 264 4 gusting 6 13.3
2020-Feb-26 07:53 278 3 gusting 10 13.3
2020-Feb-26 07:48 263 3 gusting 8 13.3
2020-Feb-26 07:43 266 4 gusting 10 13.3
2020-Feb-26 07:38 270 5 gusting 10 12.8
2020-Feb-26 07:33 270 4 gusting 8 12.8
2020-Feb-26 07:28 257 4 gusting 8 12.8
2020-Feb-26 07:13 290 2 gusting 6 12.8
2020-Feb-26 07:08 253 3 gusting 8 12.8
2020-Feb-26 06:53 274 3 gusting 6 12.8
2020-Feb-26 06:43 268 2 gusting 6 12.8
2020-Feb-26 06:33 257 3 gusting 8 12.8
2020-Feb-26 06:28 279 2 gusting 6 12.8
2020-Feb-26 06:23 247 2 gusting 7 12.8
2020-Feb-26 06:18 250 4 gusting 10 12.8
2020-Feb-26 06:03 254 2 gusting 5 12.8
2020-Feb-26 05:48 273 1 gusting 5 12.8
2020-Feb-26 05:38 246 3 gusting 10 12.8
2020-Feb-26 05:33 250 2 gusting 7 13.3
2020-Feb-26 05:28 270 2 gusting 6 13.3
2020-Feb-26 05:23 247 5 gusting 10 13.3
2020-Feb-26 04:58 252 2 gusting 6 13.3
2020-Feb-26 04:48 241 4 gusting 10 13.3
2020-Feb-26 04:43 254 4 gusting 11 13.3
2020-Feb-26 04:38 247 2 gusting 7 13.3
2020-Feb-26 04:33 262 4 gusting 11 13.9
2020-Feb-26 04:28 249 4 gusting 13 13.9
2020-Feb-26 04:18 256 6 gusting 12 13.9
2020-Feb-26 04:08 248 5 gusting 10 13.3
2020-Feb-26 04:03 253 2 gusting 8 13.3
2020-Feb-26 03:48 254 3 gusting 10 13.9
2020-Feb-26 03:43 249 5 gusting 10 13.9
2020-Feb-26 03:38 245 5 gusting 10 13.9
2020-Feb-26 03:33 245 5 gusting 10 13.9
2020-Feb-26 03:23 244 6 gusting 10 14.4
2020-Feb-26 03:18 253 5 gusting 10 14.4
2020-Feb-26 03:13 255 5 gusting 8 14.4
2020-Feb-26 03:08 237 5 gusting 10 14.4
2020-Feb-26 03:03 246 6 gusting 12 14.4
2020-Feb-26 02:58 243 6 gusting 10 14.4
2020-Feb-26 02:53 244 5 gusting 13 14.4
2020-Feb-26 02:48 243 5 gusting 10 14.4
2020-Feb-26 02:28 254 5 gusting 10 14.4
2020-Feb-26 02:23 243 5 gusting 13 14.4
2020-Feb-26 02:18 248 4 gusting 11 14.4
2020-Feb-26 02:08 245 3 gusting 7 14.4
2020-Feb-26 01:48 263 3 gusting 8 14.4
2020-Feb-26 01:43 236 3 gusting 7 14.4
2020-Feb-26 01:38 241 4 gusting 8 14.4
2020-Feb-26 01:33 250 4 gusting 7 15.0
2020-Feb-26 01:23 253 2 gusting 6 15.0
2020-Feb-26 01:18 263 2 gusting 5 14.4
2020-Feb-26 01:13 249 2 gusting 10 14.4
2020-Feb-26 01:08 232 5 gusting 10 14.4
2020-Feb-26 01:03 254 4 gusting 8 14.4
2020-Feb-26 00:53 258 2 gusting 7 13.9
2020-Feb-26 00:48 243 3 gusting 8 13.9
2020-Feb-26 00:43 237 1 gusting 5 13.9
2020-Feb-26 00:38 276 2 gusting 6 13.9
2020-Feb-26 00:33 257 0 gusting 4 13.9
2020-Feb-26 00:23 269 0 gusting 2 13.9
2020-Feb-26 00:08 270 1 gusting 2 13.9
2020-Feb-26 00:03 267 1 gusting 5 13.9
2020-Feb-25 23:53 255 1 gusting 4 13.9
2020-Feb-25 23:43 258 1 gusting 4 13.3
2020-Feb-25 23:38 288 1 gusting 4 13.3
2020-Feb-25 23:33 268 0 gusting 2 13.3
2020-Feb-25 23:28 267 0 gusting 2 13.3
2020-Feb-25 23:23 249 0 gusting 2 13.3
2020-Feb-25 23:13 249 13.3
2020-Feb-25 22:58 248 13.3
2020-Feb-25 22:48 246 0 gusting 2 13.9
2020-Feb-25 22:38 246 13.9
2020-Feb-25 22:23 246 13.9
2020-Feb-25 22:18 246 13.9
2020-Feb-25 22:13 246 13.9
2020-Feb-25 22:08 246 13.9
2020-Feb-25 22:03 246 13.9
2020-Feb-25 21:58 246 0 gusting 2 13.9
2020-Feb-25 21:53 246 13.9
2020-Feb-25 21:43 246 1 gusting 4 14.4
2020-Feb-25 21:38 255 1 gusting 1 14.4
2020-Feb-25 21:28 256 0 gusting 2 14.4
2020-Feb-25 21:13 256 14.4
2020-Feb-25 21:03 256 0 gusting 2 15.0
2020-Feb-25 20:58 256 0 gusting 2 15.0
2020-Feb-25 20:53 256 0 gusting 2 15.0
2020-Feb-25 20:48 256 0 gusting 2 15.0
2020-Feb-25 20:33 256 15.0
2020-Feb-25 20:28 256 15.6
2020-Feb-25 20:23 256 15.6
2020-Feb-25 20:03 256 15.6
2020-Feb-25 19:58 256 0 gusting 2 15.6
2020-Feb-25 19:53 256 1 gusting 2 16.1
2020-Feb-25 19:48 256 0 gusting 2 16.1
2020-Feb-25 19:43 256 0 gusting 1 16.1
2020-Feb-25 19:33 255 0 gusting 2 16.1
2020-Feb-25 19:28 255 0 gusting 2 16.1
2020-Feb-25 19:23 255 0 gusting 2 16.1
2020-Feb-25 19:18 255 0 gusting 2 16.1
2020-Feb-25 19:13 306 0 gusting 2 16.7
2020-Feb-25 19:08 343 1 gusting 5 16.7
2020-Feb-25 18:58 346 4 gusting 6 16.7
2020-Feb-25 18:48 355 4 gusting 6 17.2
2020-Feb-25 18:43 336 4 gusting 8 17.2
2020-Feb-25 18:38 353 4 gusting 6 17.8
2020-Feb-25 18:33 329 4 gusting 7 17.8
2020-Feb-25 18:28 340 2 gusting 6 18.3
2020-Feb-25 18:23 343 2 gusting 6 18.3
2020-Feb-25 18:18 317 2 gusting 6 18.3
2020-Feb-25 18:13 333 3 gusting 6 18.9
2020-Feb-25 18:08 325 4 gusting 7 18.9
2020-Feb-25 17:58 350 2 gusting 4 20.6
2020-Feb-25 17:53 340 0 gusting 6 21.1
2020-Feb-25 17:48 21.7
2020-Feb-25 17:43 348 4 gusting 10 22.2
2020-Feb-25 17:33 271 4 gusting 7 22.8
2020-Feb-25 17:28 273 5 gusting 10 22.8
2020-Feb-25 17:13 268 5 gusting 10 23.3
2020-Feb-25 17:08 262 5 gusting 10 23.3
2020-Feb-25 17:03 273 6 gusting 12 23.3
2020-Feb-25 16:58 270 5 gusting 10 23.3
2020-Feb-25 16:53 259 4 gusting 7 23.3
2020-Feb-25 16:48 264 2 gusting 6 23.3
2020-Feb-25 16:43 252 2 gusting 7 23.3
2020-Feb-25 16:38 277 4 gusting 11 23.9
2020-Feb-25 16:18 288 5 gusting 12 23.9
2020-Feb-25 16:13 267 5 gusting 11 23.9
2020-Feb-25 16:08 252 3 gusting 10 23.9
2020-Feb-25 15:58 253 5 gusting 13 23.9
2020-Feb-25 15:53 258 5 gusting 10 23.9
2020-Feb-25 15:48 268 4 gusting 11 23.9
2020-Feb-25 15:43 278 4 gusting 11 23.9
2020-Feb-25 15:38 258 4 gusting 13 23.9
2020-Feb-25 15:33 263 5 gusting 13 23.9
2020-Feb-25 15:23 255 5 gusting 13 23.9
2020-Feb-25 15:18 271 6 gusting 13 23.9
2020-Feb-25 15:13 268 7 gusting 19 23.9
2020-Feb-25 15:08 264 6 gusting 15 23.9
2020-Feb-25 15:03 275 5 gusting 12 23.9
2020-Feb-25 14:58 258 5 gusting 13 24.4
2020-Feb-25 14:53 274 6 gusting 12 24.4
2020-Feb-25 14:48 280 5 gusting 10 24.4
2020-Feb-25 14:43 251 6 gusting 10 25.0
2020-Feb-25 14:38 273 1 gusting 6 24.4
2020-Feb-25 14:28 284 7 gusting 13 25.0
2020-Feb-25 14:23 284 6 gusting 12 25.0
2020-Feb-25 14:18 273 6 gusting 13 25.0
2020-Feb-25 14:13 257 4 gusting 10 25.0
2020-Feb-25 14:03 260 4 gusting 8 25.0
2020-Feb-25 13:38 261 5 gusting 10 24.4
2020-Feb-25 13:28 247 8 gusting 17 23.9
2020-Feb-25 13:23 240 6 gusting 13 24.4
2020-Feb-25 13:08 238 8 gusting 17 23.3
2020-Feb-25 13:03 249 6 gusting 14 23.9
2020-Feb-25 12:58 254 6 gusting 18 23.9
2020-Feb-25 12:53 263 5 gusting 11 23.9
2020-Feb-25 12:48 258 6 gusting 12 23.9
2020-Feb-25 12:43 267 6 gusting 13 23.9
2020-Feb-25 12:28 269 8 gusting 18 23.9
2020-Feb-25 12:18 254 6 gusting 13 23.9
2020-Feb-25 12:13 268 5 gusting 13 24.4
2020-Feb-25 12:08 287 6 gusting 12 23.9
2020-Feb-25 11:58 269 5 gusting 12 23.3
2020-Feb-25 11:53 270 5 gusting 11 23.3
2020-Feb-25 11:43 256 6 gusting 12 23.3
2020-Feb-25 11:38 260 6 gusting 12 23.3
2020-Feb-25 11:33 256 6 gusting 13 23.3
2020-Feb-25 11:28 264 5 gusting 14 22.8
2020-Feb-25 11:23 250 5 gusting 12 22.8
2020-Feb-25 11:18 252 8 gusting 14 22.2
2020-Feb-25 11:13 254 6 gusting 13 22.2
2020-Feb-25 11:08 273 8 gusting 17 21.7
2020-Feb-25 10:53 251 6 gusting 15 21.1
2020-Feb-25 10:43 249 5 gusting 13 21.1
2020-Feb-25 10:38 247 5 gusting 13 20.6
2020-Feb-25 10:33 249 11 gusting 17 20.6
2020-Feb-25 10:28 250 10 gusting 18 20.6
2020-Feb-25 10:18 258 5 gusting 15 20.0
2020-Feb-25 10:13 252 6 gusting 15 20.0
2020-Feb-25 10:03 257 6 gusting 13 20.0
2020-Feb-25 09:48 256 10 gusting 19 19.4
2020-Feb-25 09:43 255 10 gusting 19 18.9
2020-Feb-25 09:33 244 8 gusting 15 18.3
2020-Feb-25 09:18 223 5 gusting 13 17.2
2020-Feb-25 09:03 250 7 gusting 18 17.8
2020-Feb-25 08:43 256 5 gusting 11 17.2
2020-Feb-25 08:38 257 6 gusting 13 17.2
2020-Feb-25 08:33 260 5 gusting 15 16.7
2020-Feb-25 08:28 250 6 gusting 11 16.7
2020-Feb-25 08:18 248 5 gusting 13 16.7
2020-Feb-25 08:13 257 6 gusting 14 16.7
2020-Feb-25 08:08 261 5 gusting 13 16.7
2020-Feb-25 07:58 247 4 gusting 10 16.1
2020-Feb-25 07:53 257 6 gusting 14 15.6
2020-Feb-25 07:43 270 4 gusting 10 15.6
2020-Feb-25 07:38 261 4 gusting 8 15.0
2020-Feb-25 07:28 267 4 gusting 8 15.0
2020-Feb-25 07:23 259 3 gusting 7 15.0
2020-Feb-25 07:18 259 2 gusting 10 15.0
2020-Feb-25 07:13 254 2 gusting 6 14.4
2020-Feb-25 07:08 245 2 gusting 11 14.4
2020-Feb-25 06:53 240 3 gusting 7 14.4
2020-Feb-25 06:48 278 2 gusting 10 14.4
2020-Feb-25 06:38 259 4 gusting 10 15.0
2020-Feb-25 06:33 259 2 gusting 7 15.0
2020-Feb-25 06:28 256 4 gusting 6 15.0
2020-Feb-25 06:23 255 2 gusting 7 15.0
2020-Feb-25 06:08 248 4 gusting 12 15.0
2020-Feb-25 06:03 258 3 gusting 6 15.0
2020-Feb-25 05:58 243 3 gusting 8 15.0
2020-Feb-25 05:53 247 4 gusting 10 15.0
2020-Feb-25 05:48 262 2 gusting 10 15.0
2020-Feb-25 05:38 266 4 gusting 7 15.0
2020-Feb-25 05:33 242 4 gusting 10 15.0
2020-Feb-25 05:28 251 3 gusting 11 15.0
2020-Feb-25 05:23 250 3 gusting 6 15.0
2020-Feb-25 05:18 252 3 gusting 8 15.0
2020-Feb-25 05:13 261 2 gusting 8 14.4
2020-Feb-25 04:58 255 3 gusting 8 14.4
2020-Feb-25 04:43 239 1 gusting 4 14.4
2020-Feb-25 04:38 271 2 gusting 8 14.4
2020-Feb-25 04:33 271 1 gusting 4 13.9
2020-Feb-25 04:28 258 2 gusting 6 13.9
2020-Feb-25 04:23 261 1 gusting 4 13.9
2020-Feb-25 04:13 269 1 gusting 4 13.9
2020-Feb-25 04:08 305 0 gusting 2 13.9
2020-Feb-25 04:03 282 1 gusting 4 13.9
2020-Feb-25 03:58 275 1 gusting 2 13.9
2020-Feb-25 03:53 268 1 gusting 4 13.9
2020-Feb-25 03:48 280 1 gusting 4 13.9
2020-Feb-25 03:33 248 2 gusting 6 12.8
2020-Feb-25 03:28 253 1 gusting 4 12.8
2020-Feb-25 03:13 264 1 gusting 2 11.7
2020-Feb-25 03:08 242 1 gusting 5 11.7
2020-Feb-25 03:03 252 0 gusting 2 11.7
2020-Feb-25 02:58 252 1 gusting 2 11.1
2020-Feb-25 02:48 257 0 gusting 2 11.1
2020-Feb-25 02:28 261 0 gusting 1 11.1
2020-Feb-25 02:23 261 11.1
2020-Feb-25 02:13 261 11.1
2020-Feb-25 01:58 261 0 gusting 1 11.1
2020-Feb-25 01:53 261 1 gusting 2 11.1
2020-Feb-25 01:43 261 1 gusting 2 11.1
2020-Feb-25 01:38 261 0 gusting 1 11.1
2020-Feb-25 01:33 261 0 gusting 2 11.1
2020-Feb-25 01:28 261 1 gusting 2 11.1
2020-Feb-25 01:13 261 0 gusting 1 10.6
2020-Feb-25 01:08 261 0 gusting 1 10.6
2020-Feb-25 01:03 261 10.6
2020-Feb-25 00:53 261 0 gusting 2 10.6
2020-Feb-25 00:48 260 0 gusting 1 10.6
2020-Feb-25 00:43 260 10.6
2020-Feb-25 00:38 260 10.6
2020-Feb-25 00:33 260 10.6
2020-Feb-25 00:28 260 10.6
2020-Feb-25 00:23 260 0 gusting 2 10.6
2020-Feb-25 00:18 260 0 gusting 2 10.6
2020-Feb-25 00:13 279 1 gusting 2 10.6
2020-Feb-25 00:08 294 0 gusting 2 10.6
2020-Feb-24 23:53 313 10.6
2020-Feb-24 23:48 313 11.1
2020-Feb-24 23:43 313 0 gusting 2 11.1
2020-Feb-24 23:38 317 1 gusting 2 11.1
2020-Feb-24 23:33 318 1 gusting 2 11.1
2020-Feb-24 23:28 316 1 gusting 4 11.1
2020-Feb-24 23:23 304 1 gusting 2 11.7
2020-Feb-24 23:18 288 1 gusting 2 11.7
2020-Feb-24 23:03 275 2 gusting 4 12.2
2020-Feb-24 22:58 314 0 gusting 2 12.2
2020-Feb-24 22:53 314 1 gusting 2 12.2
2020-Feb-24 22:48 320 1 gusting 2 12.2
2020-Feb-24 22:33 299 0 gusting 2 12.2
2020-Feb-24 22:28 299 12.2
2020-Feb-24 22:23 299 0 gusting 2 12.2
2020-Feb-24 22:18 299 0 gusting 2 12.2
2020-Feb-24 22:13 300 12.2
2020-Feb-24 22:03 300 12.2
2020-Feb-24 21:58 300 12.2
2020-Feb-24 21:48 300 12.2
2020-Feb-24 21:38 300 12.2
2020-Feb-24 21:33 300 0 gusting 1 12.2
2020-Feb-24 21:28 300 0 gusting 1 12.2
2020-Feb-24 21:18 338 12.8
2020-Feb-24 21:08 338 12.8
2020-Feb-24 21:03 338 12.8
2020-Feb-24 20:58 338 13.3
2020-Feb-24 20:53 338 13.3
2020-Feb-24 20:48 338 0 gusting 2 13.3
2020-Feb-24 20:43 338 13.3
2020-Feb-24 20:38 338 13.3
2020-Feb-24 20:33 338 13.9
2020-Feb-24 20:28 338 13.9
2020-Feb-24 20:23 338 0 gusting 2 13.9
2020-Feb-24 20:18 339 1 gusting 2 13.9
2020-Feb-24 20:13 339 13.9
2020-Feb-24 20:08 338 14.4
2020-Feb-24 20:03 338 0 gusting 2 14.4
2020-Feb-24 19:53 338 0 gusting 2 14.4
2020-Feb-24 19:48 338 1 gusting 2 14.4
2020-Feb-24 19:43 339 1 gusting 2 14.4
2020-Feb-24 19:38 338 1 gusting 4 15.0
2020-Feb-24 19:33 328 1 gusting 5 15.0
2020-Feb-24 19:28 336 1 gusting 4 15.0
2020-Feb-24 19:18 354 4 gusting 6 15.6
2020-Feb-24 19:13 007 4 gusting 6 15.6
2020-Feb-24 19:08 351 4 gusting 6 15.6
2020-Feb-24 19:03 004 3 gusting 5 16.1
2020-Feb-24 18:58 356 4 gusting 7 16.1
2020-Feb-24 18:53 356 3 gusting 5 16.7
2020-Feb-24 18:48 349 2 gusting 5 16.7
2020-Feb-24 18:38 323 1 gusting 2 17.2
2020-Feb-24 17:53 138 2 gusting 5 18.9
2020-Feb-24 17:48 135 3 gusting 5 18.9
2020-Feb-24 17:38 142 3 gusting 6 18.9
2020-Feb-24 17:23 135 4 gusting 6 19.4
2020-Feb-24 17:08 134 3 gusting 6 19.4
2020-Feb-24 16:58 144 4 gusting 6 19.4
2020-Feb-24 16:53 147 4 gusting 8 19.4
2020-Feb-24 16:43 144 6 gusting 10 20.0
2020-Feb-24 16:33 146 6 gusting 11 20.0
2020-Feb-24 16:28 150 7 gusting 10 20.0
2020-Feb-24 16:23 143 7 gusting 11 20.0
2020-Feb-24 16:18 154 4 gusting 10 20.6
2020-Feb-24 16:03 141 5 gusting 8 20.0